Regional Weather Roundup
Issued by NWS

Home | Current Version | Previous Version | Text Only | Print | Product List | Glossary Off
Versions: 1 2 3 4 5 6 7 8 9 10 11 12 13 14 15 16 17 18 19 20 21 22 23 24 25 26 27 28 29 30 31 32 33 34 35 36 37 38 39 40 41 42 43 44 45 46 47 48 49 50

000
ASUS43 KFSD 261502
RWRSD

WEATHER ROUNDUP FOR SOUTH DAKOTA
NATIONAL WEATHER SERVICE SIOUX FALLS SD
900 AM CST THU FEB 26 2015

NOTE: "FAIR" INDICATES FEW OR NO CLOUDS BELOW 12,000 FEET WITH NO
SIGNIFICANT WEATHER AND/OR OBSTRUCTIONS TO VISIBILITY.


SDZ001>005-009-010-012>017-261600-
NORTHWEST AND NORTH CENTRAL SOUTH DAKOTA

CITY           SKY/WX    TMP DP  RH WIND       PRES   REMARKS
BUFFALO          N/A     -6 -11  79 NW13      30.35R WCI -25
FAITH            N/A     -4 -10  75 NW13      30.47R WCI -23
MOBRIDGE       SUNNY     -6 -14  68 NW8       30.51R WCI -21
$$

SDZ012>016-024>037-041>051-057-063-072>074-261600-
SOUTHWEST AND SOUTH CENTRAL SOUTH DAKOTA

CITY           SKY/WX    TMP DP  RH WIND       PRES   REMARKS
RAPID CTY ARPT LGT SNOW  -1  -6  79 N13       30.40R WCI -19
PIERRE         SUNNY     -2  -8  76 N14       30.53R WCI -21
CUSTER         MOSUNNY    0  -7  72 CALM      30.13R
PHILIP         SUNNY      0  -8  69 N13       30.52R WCI -18
PINE RIDGE     CLOUDY     4  -1  80 N7        30.38R WCI  -8
WINNER         PTSUNNY    1  -8  66 NW13      30.50R WCI -17
$$

SDZ004>011-016>023-039-040-261600-
NORTHEAST SOUTH DAKOTA

CITY           SKY/WX    TMP DP  RH WIND       PRES   REMARKS
ABERDEEN       SUNNY     -5 -14  65 NW13      30.56R WCI -24
WATERTOWN      SUNNY     -8 -13  78 NW8       30.45R WCI -24
SISSETON         N/A     -7 -13  75 N15       30.53R WCI -28
$$

SDZ017-020-022-023-036>040-048>070-261600-
SOUTHEAST SOUTH DAKOTA

CITY           SKY/WX    TMP DP  RH WIND       PRES   REMARKS
SIOUX FALLS    SUNNY     -4 -11  72 N12       30.48R WCI -22
HURON          SUNNY    -10 -15  78 NW8       30.56R WCI -26
MITCHELL       SUNNY     -3  -9  75 NW16      30.56R WCI -24
YANKTON        SUNNY      0  -8  71 NW16      30.54R WCI -21
$$

ABBREVIATIONS USED IN REMARKS
   TC - TEMPERATURE IN CELSIUS
  WCI - WIND CHILL INDEX
   HX - HEAT INDEX
  VSB - VISIBILITY



USA.gov is the U.S. government's official web portal to all federal, state and local government web resources and services.